| time (UTC) | temp F | wind direction | speed knots | gust knots | rain 1hr in | rain 24hr in | rain mn in | humidity % | barometer mb |
| 20260503210403 | 54 | 209 | 3.5 | 16.5 | 0.00 | 0.02 | 0.02 | 50 | 1008.3 |
| 20260503205853 | 54 | 248 | 3.5 | 16.5 | 0.00 | 0.02 | 0.02 | 50 | 1008.3 |
| 20260503205401 | 54 | 234 | 6.1 | 15.6 | 0.00 | 0.02 | 0.02 | 48 | 1008.3 |
| 20260503204837 | 54 | 223 | 4.3 | 13.0 | 0.00 | 0.02 | 0.02 | 50 | 1008.3 |
| 20260503204334 | 54 | 209 | 5.2 | 18.2 | 0.00 | 0.02 | 0.02 | 48 | 1008.4 |
| 20260503203855 | 55 | 267 | 6.1 | 15.6 | 0.00 | 0.02 | 0.02 | 48 | 1008.4 |
| 20260503203334 | 56 | 260 | 5.2 | 14.8 | 0.00 | 0.02 | 0.02 | 46 | 1008.5 |
| 20260503202840 | 57 | 192 | 3.5 | 10.4 | 0.00 | 0.02 | 0.02 | 49 | 1008.6 |
| 20260503202350 | 57 | 220 | 4.3 | 13.0 | 0.00 | 0.02 | 0.02 | 47 | 1008.5 |
| 20260503201858 | 57 | 212 | 6.1 | 13.0 | 0.00 | 0.02 | 0.02 | 47 | 1008.6 |
| 20260503201352 | 57 | 219 | 6.1 | 14.8 | 0.00 | 0.02 | 0.02 | 46 | 1008.6 |
| 20260503200831 | 57 | 333 | 7.0 | 14.8 | 0.00 | 0.02 | 0.02 | 45 | 1008.6 |
| 20260503200340 | 57 | 237 | 6.1 | 14.8 | 0.00 | 0.02 | 0.02 | 46 | 1008.6 |
| 20260503195831 | 56 | 265 | 5.2 | 13.9 | 0.00 | 0.02 | 0.02 | 46 | 1008.6 |
| 20260503195331 | 56 | 298 | 4.3 | 10.4 | 0.00 | 0.02 | 0.02 | 46 | 1008.7 |
| 20260503194845 | 56 | 200 | 4.3 | 10.4 | 0.00 | 0.02 | 0.02 | 48 | 1008.9 |
| 20260503194338 | 56 | 252 | 4.3 | 10.4 | 0.00 | 0.02 | 0.02 | 50 | 1008.9 |
| 20260503193843 | 56 | 177 | 2.6 | 8.7 | 0.00 | 0.02 | 0.02 | 50 | 1009.1 |
| 20260503193345 | 54 | 234 | 2.6 | 8.7 | 0.00 | 0.02 | 0.02 | 51 | 1009.1 |
| 20260503192846 | 54 | 223 | 4.3 | 13.0 | 0.00 | 0.02 | 0.02 | 50 | 1009.2 |
| 20260503192345 | 55 | 103 | 3.5 | 13.9 | 0.00 | 0.02 | 0.02 | 50 | 1009.1 |
| 20260503191836 | 55 | 5 | 3.5 | 13.0 | 0.00 | 0.02 | 0.02 | 47 | 1009.2 |
| 20260503191339 | 55 | 256 | 5.2 | 10.4 | 0.00 | 0.02 | 0.02 | 49 | 1009.2 |
| 20260503190841 | 55 | 267 | 3.5 | 14.8 | 0.00 | 0.02 | 0.02 | 49 | 1009.3 |
| 20260503190352 | 54 | 279 | 7.0 | 14.8 | 0.00 | 0.02 | 0.02 | 47 | 1009.3 |
| 20260503185838 | 55 | 240 | 5.2 | 13.0 | 0.00 | 0.02 | 0.02 | 45 | 1009.3 |
| 20260503185344 | 55 | 227 | 4.3 | 20.0 | 0.00 | 0.02 | 0.02 | 46 | 1009.5 |
| 20260503184843 | 54 | 245 | 8.7 | 20.0 | 0.00 | 0.02 | 0.02 | 45 | 1009.3 |
| 20260503184347 | 54 | 213 | 8.7 | 17.4 | 0.00 | 0.02 | 0.02 | 45 | 1009.4 |
| 20260503183835 | 54 | 206 | 5.2 | 13.9 | 0.00 | 0.02 | 0.02 | 47 | 1009.5 |
| 20260503183358 | 55 | 248 | 4.3 | 13.9 | 0.00 | 0.02 | 0.02 | 45 | 1009.6 |
| 20260503182846 | 54 | 196 | 4.3 | 15.6 | 0.00 | 0.02 | 0.02 | 47 | 1009.6 |
| 20260503182344 | 54 | 273 | 5.2 | 15.6 | 0.00 | 0.02 | 0.02 | 45 | 1009.7 |
| 20260503181833 | 54 | 195 | 4.3 | 13.9 | 0.00 | 0.02 | 0.02 | 47 | 1009.7 |
| 20260503181353 | 54 | 246 | 7.0 | 13.9 | 0.00 | 0.02 | 0.02 | 48 | 1009.8 |
| 20260503180847 | 54 | 204 | 6.1 | 11.3 | 0.00 | 0.02 | 0.02 | 48 | 1009.8 |
| 20260503180330 | 54 | 251 | 4.3 | 13.9 | 0.00 | 0.02 | 0.02 | 46 | 1009.8 |
| 20260503175838 | 54 | 206 | 2.6 | 8.7 | 0.00 | 0.02 | 0.02 | 48 | 1009.9 |
| 20260503175331 | 53 | 232 | 4.3 | 14.8 | 0.00 | 0.02 | 0.02 | 46 | 1010.0 |
| 20260503174842 | 53 | 249 | 6.1 | 14.8 | 0.00 | 0.02 | 0.02 | 43 | 1010.2 |
| 20260503174352 | 54 | 250 | 6.1 | 13.9 | 0.00 | 0.02 | 0.02 | 50 | 1010.2 |
| 20260503173853 | 52 | 301 | 7.0 | 13.9 | 0.00 | 0.02 | 0.02 | 41 | 1010.3 |
| 20260503173340 | 52 | 238 | 4.3 | 14.8 | 0.00 | 0.02 | 0.02 | 43 | 1010.5 |
| 20260503172905 | 52 | 205 | 7.8 | 18.2 | 0.00 | 0.02 | 0.02 | 43 | 1010.6 |
| 20260503172336 | 52 | 226 | 6.1 | 18.2 | 0.00 | 0.02 | 0.02 | 42 | 1010.6 |
| 20260503171855 | 52 | 200 | 7.0 | 13.0 | 0.00 | 0.02 | 0.02 | 43 | 1010.7 |
| 20260503171411 | 51 | 243 | 4.3 | 8.7 | 0.00 | 0.02 | 0.02 | 49 | 1010.7 |
| 20260503170831 | 51 | 280 | 4.3 | 8.7 | 0.00 | 0.02 | 0.02 | 46 | 1010.8 |
| 20260503170405 | 52 | 238 | 3.5 | 9.6 | 0.00 | 0.02 | 0.02 | 50 | 1010.8 |
| 20260503150837 | 47 | 56 | 1.7 | 12.2 | 0.00 | 0.02 | 0.02 | 60 | 1011.9 |
| 20260503150345 | 48 | 263 | 5.2 | 10.4 | 0.00 | 0.02 | 0.02 | 61 | 1011.8 |
| 20260503131343 | 43 | 241 | 5.2 | 10.4 | 0.00 | 0.02 | 0.02 | 71 | 1012.0 |
| 20260503130858 | 43 | 244 | 3.5 | 12.2 | 0.00 | 0.02 | 0.02 | 70 | 1012.1 |
| 20260503130332 | 43 | 205 | 6.1 | 12.2 | 0.00 | 0.02 | 0.02 | 71 | 1012.0 |
| 20260503110407 | 33 | 214 | 0.9 | 2.6 | 0.00 | 0.00 | 0.00 | 94 | 1011.7 |
| 20260503072857 | 32 | 235 | 1.7 | 6.1 | 0.00 | 0.00 | 0.00 | 94 | 1011.9 |
| 20260503072352 | 32 | 229 | 1.7 | 2.6 | 0.00 | 0.00 | 0.00 | 94 | 1011.9 |
| 20260503071905 | 32 | 229 | 0.9 | 3.5 | 0.00 | 0.00 | 0.00 | 94 | 1011.9 |
| 20260503071353 | 32 | 243 | 1.7 | 3.5 | 0.00 | 0.00 | 0.00 | 94 | 1011.9 |
| 20260503070855 | 32 | 253 | 1.7 | 4.3 | 0.00 | 0.00 | 0.00 | 94 | 1011.9 |
| 20260503070352 | 32 | 245 | 1.7 | 4.3 | 0.00 | 0.00 | 0.00 | 94 | 1012.0 |
| 20260503060336 | 33 | 225 | 2.6 | 3.5 | 0.00 | 0.00 | 0.00 | 93 | 1012.3 |
| 20260503054850 | 33 | 265 | 1.7 | 3.5 | 0.00 | 0.00 | 0.00 | 93 | 1012.3 |
| 20260503054353 | 33 | 243 | 1.7 | 3.5 | 0.00 | 0.00 | 0.00 | 93 | 1012.3 |
| 20260503053844 | 33 | 244 | 1.7 | 5.2 | 0.00 | 0.00 | 0.00 | 93 | 1012.3 |
| 20260503053342 | 33 | 248 | 1.7 | 5.2 | 0.00 | 0.00 | 0.00 | 93 | 1012.4 |
| 20260503052837 | 33 | 236 | 1.7 | 4.3 | 0.00 | 0.00 | 0.00 | 93 | 1012.4 |
| 20260503052355 | 33 | 233 | 1.7 | 3.5 | 0.00 | 0.00 | 0.00 | 93 | 1012.5 |
| 20260503051901 | 33 | 244 | 1.7 | 3.5 | 0.00 | 0.00 | 0.00 | 93 | 1012.5 |
| 20260503051353 | 33 | 240 | 1.7 | 3.5 | 0.00 | 0.00 | 0.00 | 93 | 1012.5 |
| 20260503050850 | 33 | 229 | 1.7 | 3.5 | 0.00 | 0.00 | 0.00 | 93 | 1012.7 |
| 20260503050353 | 33 | 246 | 1.7 | 2.6 | 0.00 | 0.00 | 0.00 | 93 | 1012.5 |
| 20260503045900 | 33 | 246 | 1.7 | 5.2 | 0.00 | 0.00 | 0.00 | 93 | 1012.6 |
| 20260503045412 | 33 | 237 | 1.7 | 5.2 | 0.00 | 0.00 | 0.00 | 93 | 1012.7 |
| 20260503044838 | 33 | 216 | 1.7 | 3.5 | 0.00 | 0.00 | 0.00 | 93 | 1012.7 |
| 20260503044336 | 34 | 227 | 1.7 | 2.6 | 0.00 | 0.00 | 0.00 | 93 | 1012.7 |
| 20260503043836 | 33 | 227 | 1.7 | 2.6 | 0.00 | 0.00 | 0.00 | 93 | 1012.6 |
| 20260503043337 | 34 | 220 | 1.7 | 3.5 | 0.00 | 0.00 | 0.00 | 93 | 1012.8 |
| 20260503042838 | 34 | 219 | 1.7 | 3.5 | 0.00 | 0.00 | 0.00 | 93 | 1012.7 |
| 20260503042346 | 34 | 232 | 1.7 | 3.5 | 0.00 | 0.00 | 0.00 | 93 | 1012.8 |
| 20260503041840 | 34 | 249 | 1.7 | 2.6 | 0.00 | 0.00 | 0.00 | 93 | 1012.8 |
| 20260503041342 | 34 | 249 | 1.7 | 2.6 | 0.00 | 0.00 | 0.00 | 93 | 1012.8 |
| 20260503040859 | 34 | 249 | 0.9 | 2.6 | 0.00 | 0.00 | 0.00 | 93 | 1012.9 |
| 20260503040334 | 34 | 249 | 1.7 | 2.6 | 0.00 | 0.00 | 0.00 | 93 | 1012.9 |
| 20260503035846 | 34 | 229 | 0.9 | 2.6 | 0.00 | 0.00 | 0.00 | 93 | 1012.9 |
| 20260503035337 | 34 | 229 | 0.9 | 2.6 | 0.00 | 0.00 | 0.00 | 93 | 1012.9 |
| 20260503034854 | 34 | 215 | 0.9 | 2.6 | 0.00 | 0.00 | 0.00 | 93 | 1012.8 |
| 20260503034408 | 34 | 244 | 0.9 | 2.6 | 0.00 | 0.00 | 0.00 | 93 | 1012.9 |
| 20260503033837 | 34 | 244 | 0.9 | 2.6 | 0.00 | 0.00 | 0.00 | 93 | 1013.0 |
| 20260503033336 | 34 | 245 | 0.0 | 1.7 | 0.00 | 0.00 | 0.00 | 93 | 1012.9 |
| 20260503032855 | 34 | 244 | 0.0 | 0.0 | 0.00 | 0.00 | 0.00 | 93 | 1012.8 |
| 20260503032335 | 34 | 244 | 0.0 | 0.0 | 0.00 | 0.00 | 0.00 | 92 | 1012.9 |
| 20260503031850 | 34 | 244 | 0.0 | 0.0 | 0.00 | 0.00 | 0.00 | 92 | 1012.8 |
| 20260503031351 | 34 | 244 | 0.0 | 0.9 | 0.00 | 0.00 | 0.00 | 92 | 1012.9 |
| 20260503030906 | 34 | 244 | 0.9 | 0.9 | 0.00 | 0.00 | 0.00 | 92 | 1012.9 |
| 20260503030343 | 34 | 245 | 0.0 | 0.9 | 0.00 | 0.00 | 0.00 | 91 | 1013.0 |
| 20260503025913 | 34 | 244 | 0.0 | 2.6 | 0.00 | 0.00 | 0.00 | 91 | 1012.9 |
| 20260503025413 | 34 | 245 | 0.9 | 2.6 | 0.00 | 0.00 | 0.00 | 91 | 1013.0 |
| 20260503024843 | 34 | 194 | 0.0 | 1.7 | 0.00 | 0.00 | 0.00 | 90 | 1013.0 |
| 20260503024339 | 34 | 194 | 0.9 | 1.7 | 0.00 | 0.00 | 0.00 | 90 | 1013.1 |
| 20260503023855 | 34 | 194 | 0.0 | 2.6 | 0.00 | 0.00 | 0.00 | 89 | 1013.1 |
| 20260503023336 | 34 | 194 | 1.7 | 6.1 | 0.00 | 0.00 | 0.00 | 88 | 1013.2 |
| 20260503022858 | 35 | 242 | 3.5 | 6.1 | 0.00 | 0.00 | 0.00 | 88 | 1013.4 |
| 20260503022338 | 35 | 207 | 2.6 | 3.5 | 0.00 | 0.00 | 0.00 | 88 | 1013.4 |
| 20260503021855 | 35 | 233 | 1.7 | 3.5 | 0.00 | 0.00 | 0.00 | 88 | 1013.4 |
| 20260503021347 | 35 | 224 | 0.9 | 2.6 | 0.00 | 0.00 | 0.00 | 87 | 1013.4 |
| 20260503020842 | 35 | 243 | 1.7 | 2.6 | 0.00 | 0.00 | 0.00 | 87 | 1013.4 |
| 20260503020343 | 35 | 240 | 0.9 | 2.6 | 0.00 | 0.00 | 0.00 | 86 | 1013.4 |
| 20260503015850 | 36 | 240 | 0.9 | 3.5 | 0.00 | 0.00 | 0.00 | 85 | 1013.5 |
| 20260503015351 | 36 | 247 | 1.7 | 6.1 | 0.00 | 0.00 | 0.00 | 85 | 1013.5 |
| 20260503014844 | 36 | 241 | 1.7 | 4.3 | 0.00 | 0.00 | 0.00 | 85 | 1013.4 |
| 20260503014335 | 36 | 232 | 1.7 | 3.5 | 0.00 | 0.00 | 0.00 | 85 | 1013.4 |
| 20260503013837 | 36 | 232 | 1.7 | 6.1 | 0.00 | 0.00 | 0.00 | 85 | 1013.3 |
| 20260503013338 | 36 | 232 | 2.6 | 6.1 | 0.00 | 0.00 | 0.00 | 84 | 1013.2 |
| 20260503012858 | 37 | 244 | 1.7 | 5.2 | 0.00 | 0.00 | 0.00 | 84 | 1013.2 |
| 20260503012337 | 37 | 216 | 1.7 | 3.5 | 0.00 | 0.00 | 0.00 | 84 | 1013.2 |
| 20260503011853 | 37 | 272 | 1.7 | 2.6 | 0.00 | 0.00 | 0.00 | 84 | 1013.2 |
| 20260503011358 | 37 | 229 | 0.9 | 2.6 | 0.00 | 0.00 | 0.00 | 84 | 1013.2 |
| 20260503010859 | 37 | 229 | 0.9 | 3.5 | 0.00 | 0.00 | 0.00 | 84 | 1013.2 |
| 20260503010334 | 37 | 229 | 1.7 | 5.2 | 0.00 | 0.00 | 0.00 | 84 | 1013.2 |
| 20260503005905 | 37 | 225 | 2.6 | 5.2 | 0.00 | 0.00 | 0.00 | 84 | 1013.1 |
| 20260503005340 | 37 | 222 | 1.7 | 3.5 | 0.00 | 0.00 | 0.00 | 83 | 1013.1 |
| 20260503004841 | 37 | 244 | 1.7 | 2.6 | 0.00 | 0.00 | 0.00 | 82 | 1013.0 |
| 20260503004348 | 37 | 244 | 1.7 | 4.3 | 0.00 | 0.00 | 0.00 | 82 | 1013.0 |
| 20260503003836 | 37 | 244 | 0.0 | 6.1 | 0.00 | 0.00 | 0.00 | 81 | 1013.0 |
| 20260503003336 | 37 | 228 | 3.5 | 6.1 | 0.00 | 0.00 | 0.00 | 81 | 1012.9 |
| 20260503002856 | 37 | 269 | 0.0 | 7.0 | 0.00 | 0.00 | 0.00 | 81 | 1012.9 |
| 20260503002348 | 37 | 254 | 2.6 | 7.0 | 0.00 | 0.00 | 0.00 | 81 | 1013.0 |
| 20260503001842 | 37 | 227 | 1.7 | 4.3 | 0.00 | 0.00 | 0.00 | 80 | 1013.0 |
| 20260503001342 | 37 | 237 | 1.7 | 4.3 | 0.00 | 0.00 | 0.00 | 80 | 1013.1 |
| 20260503000841 | 38 | 226 | 1.7 | 4.3 | 0.00 | 0.00 | 0.00 | 80 | 1013.0 |
| 20260503000347 | 38 | 259 | 1.7 | 4.3 | 0.00 | 0.00 | 0.00 | 80 | 1012.9 |
| 20260502235840 | 38 | 253 | 1.7 | 4.3 | 0.00 | 0.00 | 0.00 | 79 | 1012.8 |
| 20260502235349 | 38 | 217 | 1.7 | 3.5 | 0.00 | 0.00 | 0.00 | 79 | 1012.8 |
| 20260502234852 | 38 | 205 | 1.7 | 4.3 | 0.00 | 0.00 | 0.00 | 78 | 1012.9 |
| 20260502234338 | 38 | 205 | 1.7 | 7.0 | 0.00 | 0.00 | 0.00 | 78 | 1012.8 |
| 20260502233859 | 38 | 216 | 1.7 | 6.1 | 0.00 | 0.00 | 0.00 | 77 | 1012.7 |
| 20260502233402 | 38 | 227 | 1.7 | 5.2 | 0.00 | 0.00 | 0.00 | 76 | 1012.7 |
| 20260502232846 | 38 | 221 | 1.7 | 5.2 | 0.00 | 0.00 | 0.00 | 76 | 1012.7 |
| 20260502232341 | 38 | 250 | 2.6 | 3.5 | 0.00 | 0.00 | 0.00 | 77 | 1012.7 |
| 20260502231900 | 38 | 232 | 2.6 | 8.7 | 0.00 | 0.00 | 0.00 | 77 | 1012.7 |
| 20260502231415 | 38 | 234 | 2.6 | 8.7 | 0.00 | 0.00 | 0.00 | 77 | 1012.7 |
| 20260502230855 | 39 | 267 | 2.6 | 7.8 | 0.00 | 0.00 | 0.00 | 76 | 1012.7 |
| 20260502230347 | 39 | 219 | 3.5 | 6.1 | 0.00 | 0.00 | 0.00 | 76 | 1012.7 |
| 20260502225836 | 39 | 294 | 0.9 | 8.7 | 0.00 | 0.00 | 0.00 | 76 | 1012.7 |
| 20260502225336 | 39 | 274 | 1.7 | 8.7 | 0.00 | 0.00 | 0.00 | 75 | 1012.8 |
| 20260502224852 | 39 | 240 | 3.5 | 7.0 | 0.00 | 0.00 | 0.00 | 76 | 1012.7 |
| 20260502224353 | 39 | 236 | 2.6 | 6.1 | 0.00 | 0.00 | 0.00 | 74 | 1012.8 |
| 20260502223856 | 39 | 246 | 2.6 | 6.1 | 0.00 | 0.00 | 0.00 | 75 | 1012.9 |
| 20260502223348 | 39 | 210 | 2.6 | 6.1 | 0.00 | 0.00 | 0.00 | 75 | 1012.9 |
| 20260502222849 | 39 | 217 | 1.7 | 5.2 | 0.00 | 0.00 | 0.00 | 74 | 1012.8 |
| 20260502222344 | 39 | 234 | 1.7 | 4.3 | 0.00 | 0.00 | 0.00 | 74 | 1012.6 |
| 20260502221845 | 39 | 243 | 1.7 | 4.3 | 0.00 | 0.00 | 0.00 | 74 | 1012.7 |
| 20260502221343 | 39 | 90 | 1.7 | 6.1 | 0.00 | 0.00 | 0.00 | 73 | 1012.7 |
| 20260502220846 | 39 | 327 | 1.7 | 6.1 | 0.00 | 0.00 | 0.00 | 73 | 1012.6 |
| 20260502215833 | 39 | 240 | 0.9 | 4.3 | 0.00 | 0.01 | 0.00 | 71 | 1012.5 |
| 20260502215356 | 39 | 273 | 1.7 | 4.3 | 0.00 | 0.01 | 0.00 | 71 | 1012.5 |
| 20260502214853 | 39 | 219 | 2.6 | 4.3 | 0.00 | 0.01 | 0.00 | 71 | 1012.4 |
| 20260502214336 | 39 | 224 | 1.7 | 4.3 | 0.00 | 0.01 | 0.00 | 72 | 1012.5 |
| 20260502213836 | 39 | 153 | 1.7 | 5.2 | 0.00 | 0.01 | 0.00 | 70 | 1012.5 |
| 20260502213352 | 40 | 232 | 2.6 | 7.0 | 0.00 | 0.01 | 0.00 | 71 | 1012.5 |
| 20260502212855 | 40 | 190 | 0.9 | 7.0 | 0.00 | 0.01 | 0.00 | 71 | 1012.5 |
| 20260502212411 | 40 | 229 | 1.7 | 3.5 | 0.00 | 0.01 | 0.00 | 70 | 1012.5 |
| 20260502211845 | 40 | 348 | 0.9 | 6.1 | 0.00 | 0.01 | 0.00 | 69 | 1012.5 |
| 20260502211344 | 40 | 253 | 1.7 | 10.4 | 0.00 | 0.01 | 0.00 | 70 | 1012.4 |
| 20260502210837 | 40 | 223 | 2.6 | 10.4 | 0.00 | 0.01 | 0.00 | 69 | 1012.4 |